timestamp,surface_pressure_avg,surface_temp_avg,battery_voltage,lat,long
2022-12-15 00:09:00+00:00,248.1897,4.34,12.57,47.84626,-54.09684
2022-12-15 00:19:00+00:00,254.7047,4.35,12.57,47.84626,-54.09684
2022-12-15 00:29:00+00:00,260.9781,4.37,12.57,47.84626,-54.09684
2022-12-15 00:39:00+00:00,260.403,4.38,12.57,47.84626,-54.09684
2022-12-15 00:49:00+00:00,258.2014,4.37,12.57,47.84626,-54.09684
2022-12-15 00:59:00+00:00,269.953,4.35,12.57,47.84626,-54.09684
2022-12-15 01:09:00+00:00,281.9948,4.3,12.57,47.84626,-54.09684
2022-12-15 01:19:00+00:00,282.368,4.3,12.49,47.84626,-54.09684
2022-12-15 01:29:00+00:00,280.7997,4.3,12.49,47.84626,-54.09684
2022-12-15 01:39:00+00:00,289.8514,4.3,12.49,47.84626,-54.09684
2022-12-15 01:49:00+00:00,298.0364,4.3,12.49,47.84626,-54.09684
2022-12-15 01:59:00+00:00,291.308,4.34,12.49,47.84626,-54.09684
2022-12-15 02:09:00+00:00,286.988,4.39,12.49,47.84626,-54.09684
2022-12-15 02:19:00+00:00,292.203,4.4,12.49,47.84626,-54.09684
2022-12-15 02:29:00+00:00,302.1913,4.37,12.49,47.84626,-54.09684
2022-12-15 02:39:00+00:00,302.438,4.32,12.49,47.84626,-54.09684
2022-12-15 02:49:00+00:00,301.7664,4.3,12.49,47.84626,-54.09684
2022-12-15 02:59:00+00:00,307.1613,4.32,12.49,47.84626,-54.09684
2022-12-15 03:09:00+00:00,312.0797,4.32,12.49,47.84626,-54.09684
2022-12-15 03:19:00+00:00,313.6063,4.3,12.49,47.84626,-54.09684
2022-12-15 03:29:00+00:00,313.6179,4.3,12.49,47.84626,-54.09684
2022-12-15 03:39:00+00:00,311.5447,4.31,12.49,47.84626,-54.09684
2022-12-15 03:49:00+00:00,313.6063,4.32,12.49,47.84626,-54.09684
2022-12-15 03:59:00+00:00,316.6029,4.33,12.49,47.84626,-54.09684
2022-12-15 04:09:00+00:00,320.7513,4.35,12.49,47.84626,-54.09684
2022-12-15 04:19:00+00:00,322.9363,4.34,12.49,47.84626,-54.09684
2022-12-15 04:29:00+00:00,323.3563,4.33,12.49,47.84626,-54.09684
2022-12-15 04:39:00+00:00,323.9329,4.35,12.49,47.84626,-54.09684
2022-12-15 04:49:00+00:00,326.033,4.35,12.49,47.84626,-54.09684
2022-12-15 04:59:00+00:00,325.5947,4.35,12.49,47.84626,-54.09684
2022-12-15 05:09:00+00:00,319.0397,4.36,12.49,47.84626,-54.09684
2022-12-15 05:19:00+00:00,320.6297,4.35,12.41,47.84626,-54.09684
2022-12-15 05:29:00+00:00,321.6047,4.38,12.41,47.84626,-54.09684
2022-12-15 05:39:00+00:00,315.548,4.39,12.41,47.84626,-54.09684
2022-12-15 05:49:00+00:00,311.7313,4.32,12.41,47.84626,-54.09684
2022-12-15 05:59:00+00:00,313.3997,4.34,12.41,47.84626,-54.09684
2022-12-15 06:09:00+00:00,308.1313,4.32,12.41,47.84626,-54.09684
2022-12-15 06:19:00+00:00,298.5063,4.33,12.41,47.84626,-54.09684
2022-12-15 06:29:00+00:00,299.1496,4.34,12.41,47.84626,-54.09684
2022-12-15 06:39:00+00:00,302.08799999999997,4.34,12.41,47.84626,-54.09684
2022-12-15 06:49:00+00:00,295.6947,4.3,12.41,47.84626,-54.09684
2022-12-15 06:59:00+00:00,284.0264,4.32,12.41,47.84626,-54.09684
2022-12-15 07:09:00+00:00,279.5731,4.3,12.41,47.84626,-54.09684
2022-12-15 07:19:01+00:00,278.6647,4.31,12.41,47.84626,-54.09684
2022-12-15 07:29:01+00:00,270.7431,4.31,12.41,47.84626,-54.09684
2022-12-15 07:39:01+00:00,257.0264,4.3,12.41,47.84626,-54.09684
2022-12-15 07:49:01+00:00,251.5147,4.3,12.41,47.84626,-54.09684
2022-12-15 07:59:01+00:00,252.6864,4.3,12.41,47.84626,-54.09684
2022-12-15 08:09:01+00:00,249.1815,4.3,12.41,47.84626,-54.09684
2022-12-15 08:19:00+00:00,243.6147,4.3,12.41,47.84626,-54.09684
2022-12-15 08:29:00+00:00,239.0147,4.3,12.41,47.84626,-54.09684
2022-12-15 08:39:00+00:00,240.1414,4.3,12.41,47.84626,-54.09684
2022-12-15 08:49:00+00:00,236.6281,4.3,12.41,47.84626,-54.09684
2022-12-15 08:59:00+00:00,229.7714,4.3,12.41,47.84626,-54.09684
2022-12-15 09:09:00+00:00,223.4964,4.3,12.41,47.84626,-54.09684
2022-12-15 09:19:00+00:00,225.9081,4.3,12.41,47.84626,-54.09684
2022-12-15 09:29:00+00:00,226.8781,4.3,12.41,47.84626,-54.09684
2022-12-15 09:39:00+00:00,224.5615,4.3,12.41,47.84626,-54.09684
2022-12-15 09:49:00+00:00,224.4614,4.3,12.41,47.84626,-54.09684
2022-12-15 09:59:00+00:00,228.3214,4.3,12.41,47.84626,-54.09684
2022-12-15 10:09:00+00:00,230.6364,4.3,12.41,47.84626,-54.09684
2022-12-15 10:19:00+00:00,233.5431,4.3,12.41,47.84626,-54.09684
2022-12-15 10:29:00+00:00,236.8981,4.3,12.41,47.84626,-54.09684
2022-12-15 10:39:00+00:00,240.3898,4.3,12.41,47.84626,-54.09684
2022-12-15 10:49:00+00:00,242.9031,4.3,12.41,47.84626,-54.09684
2022-12-15 10:59:00+00:00,244.7198,4.3,12.41,47.84626,-54.09684
2022-12-15 11:09:00+00:00,247.1031,4.3,12.41,47.84626,-54.09684
2022-12-15 11:19:00+00:00,253.8197,4.3,12.41,47.84626,-54.09684
2022-12-15 11:29:00+00:00,259.8597,4.3,12.41,47.84626,-54.09684
2022-12-15 11:39:00+00:00,261.403,4.3,12.41,47.84626,-54.09684
2022-12-15 11:49:00+00:00,261.7331,4.3,12.41,47.84626,-54.09684
2022-12-15 11:59:00+00:00,264.4247,4.3,12.41,47.84626,-54.09684
2022-12-15 12:09:00+00:00,266.8331,4.3,12.41,47.84626,-54.09684
2022-12-15 12:19:00+00:00,262.873,4.3,12.41,47.84626,-54.09684
2022-12-15 12:29:00+00:00,260.1731,4.3,12.41,47.84626,-54.09684
2022-12-15 12:39:00+00:00,265.5947,4.3,12.41,47.84626,-54.09684
2022-12-15 12:49:00+00:00,270.6814,4.3,12.41,47.84626,-54.09684
2022-12-15 12:59:00+00:00,272.2714,4.3,12.41,47.84626,-54.09684
2022-12-15 13:09:00+00:00,275.0731,4.3,12.41,47.84626,-54.09684
2022-12-15 13:19:00+00:00,282.4614,4.3,12.41,47.84626,-54.09684
2022-12-15 13:29:00+00:00,287.3897,4.3,12.41,47.84626,-54.09684
2022-12-15 13:39:00+00:00,293.9581,4.3,12.41,47.84626,-54.09684
2022-12-15 13:49:00+00:00,301.2647,4.3,12.41,47.84626,-54.09684
2022-12-15 13:59:00+00:00,302.653,4.3,12.41,47.84626,-54.09684
2022-12-15 14:09:00+00:00,303.2964,4.3,12.41,47.84626,-54.09684
2022-12-15 14:19:00+00:00,307.243,4.3,12.41,47.84626,-54.09684
2022-12-15 14:29:00+00:00,315.0263,4.3,12.41,47.84626,-54.09684
2022-12-15 14:39:00+00:00,320.2797,4.3,12.41,47.84626,-54.09684
2022-12-15 14:49:00+00:00,321.5679,4.3,12.41,47.84626,-54.09684
2022-12-15 14:59:00+00:00,326.6481,4.3,12.41,47.84626,-54.09684
2022-12-15 15:09:00+00:00,331.473,4.3,12.41,47.84626,-54.09684
2022-12-15 15:19:00+00:00,334.4479,4.3,12.41,47.84626,-54.09684
2022-12-15 15:29:00+00:00,335.6346,4.3,12.41,47.84626,-54.09684
2022-12-15 15:39:00+00:00,337.598,4.3,12.41,47.84626,-54.09684
2022-12-15 15:49:00+00:00,341.3230000000001,4.32,12.41,47.84626,-54.09684
2022-12-15 15:59:00+00:00,341.5679,4.35,12.41,47.84626,-54.09684
2022-12-15 16:09:00+00:00,341.608,4.34,12.41,47.84626,-54.09684
2022-12-15 16:19:00+00:00,341.0746,4.35,12.41,47.84626,-54.09684
2022-12-15 16:29:00+00:00,343.1246,4.37,12.41,47.84626,-54.09684
2022-12-15 16:39:00+00:00,346.1179,4.37,12.41,47.84626,-54.09684
2022-12-15 16:49:00+00:00,346.9863,4.38,12.41,47.84626,-54.09684
2022-12-15 16:59:00+00:00,342.5696,4.38,12.41,47.84626,-54.09684
2022-12-15 17:09:00+00:00,341.7262,4.38,12.41,47.84626,-54.09684
2022-12-15 17:19:00+00:00,339.9113,4.38,12.41,47.84626,-54.09684
2022-12-15 17:29:00+00:00,335.8763,4.39,12.41,47.84626,-54.09684
2022-12-15 17:39:00+00:00,334.8446,4.39,12.41,47.84626,-54.09684
2022-12-15 17:49:00+00:00,335.4296,4.4,12.41,47.84626,-54.09684
2022-12-15 17:59:00+00:00,334.2796,4.4,12.41,47.84626,-54.09684
2022-12-15 18:09:00+00:00,327.0164,4.4,12.41,47.84626,-54.09684
2022-12-15 18:19:00+00:00,323.0496,4.4,12.41,47.84626,-54.09684
2022-12-15 18:29:00+00:00,324.578,4.4,12.41,47.84626,-54.09684
2022-12-15 18:39:00+00:00,322.6947,4.4,12.41,47.84626,-54.09684
2022-12-15 18:49:00+00:00,316.5062,4.4,12.41,47.84626,-54.09684
2022-12-15 18:59:00+00:00,308.198,4.4,12.41,47.84626,-54.09684
2022-12-15 19:09:00+00:00,305.2313,4.4,12.41,47.84626,-54.09684
2022-12-15 19:19:01+00:00,302.708,4.4,12.41,47.84626,-54.09684
2022-12-15 19:29:01+00:00,298.3697,4.4,12.41,47.84626,-54.09684
2022-12-15 19:39:01+00:00,292.3646,4.4,12.41,47.84626,-54.09684
2022-12-15 19:49:01+00:00,285.4497,4.4,12.41,47.84626,-54.09684
2022-12-15 19:59:01+00:00,280.7831,4.4,12.41,47.84626,-54.09684
2022-12-15 20:09:01+00:00,274.2764,4.4,12.41,47.84626,-54.09684
2022-12-15 20:19:00+00:00,269.3198,4.4,12.41,47.84626,-54.09684
2022-12-15 20:29:00+00:00,264.1697,4.4,12.41,47.84626,-54.09684
2022-12-15 20:39:00+00:00,259.4431,4.4,12.41,47.84626,-54.09684
2022-12-15 20:49:00+00:00,253.4614,4.4,12.41,47.84626,-54.09684
2022-12-15 20:59:00+00:00,251.4664,4.4,12.41,47.84626,-54.09684
2022-12-15 21:09:00+00:00,251.5397,4.4,12.41,47.84626,-54.09684
2022-12-15 21:19:00+00:00,246.3581,4.4,12.41,47.84626,-54.09684
2022-12-15 21:29:00+00:00,241.8997,4.4,12.41,47.84626,-54.09684
2022-12-15 21:39:00+00:00,243.898,4.4,12.41,47.84626,-54.09684
2022-12-15 21:49:00+00:00,241.4081,4.39,12.41,47.84626,-54.09684
2022-12-15 21:59:00+00:00,234.3297,4.39,12.41,47.84626,-54.09684
2022-12-15 22:09:00+00:00,233.7031,4.39,12.41,47.84626,-54.09684
2022-12-15 22:19:00+00:00,240.0198,4.4,12.41,47.84626,-54.09684
2022-12-15 22:29:00+00:00,240.0281,4.39,12.41,47.84626,-54.09684
2022-12-15 22:39:00+00:00,238.4748,4.38,12.41,47.84626,-54.09684
2022-12-15 22:49:00+00:00,240.9981,4.37,12.41,47.84626,-54.09684
2022-12-15 22:59:00+00:00,244.0881,4.37,12.41,47.84626,-54.09684
2022-12-15 23:09:00+00:00,243.6881,4.36,12.41,47.84626,-54.09684
2022-12-15 23:19:00+00:00,245.2248,4.34,12.41,47.84626,-54.09684
2022-12-15 23:29:00+00:00,247.3997,4.36,12.41,47.84626,-54.09684
2022-12-15 23:39:00+00:00,245.723,4.37,12.41,47.84626,-54.09684
2022-12-15 23:49:00+00:00,243.2831,4.35,12.41,47.84626,-54.09684
2022-12-15 23:59:00+00:00,245.3448,4.32,12.41,47.84626,-54.09684
